Tracking 18840 objects as of 19-November-2017
HD Live streaming from Space Station
objects crossing your sky now

SL-8 R/B

Track SL-8 R/B now!
10-day predictions
SL-8 R/B is classified as:


NORAD ID: 7004
Int'l Code: 1973-107B
Perigee: 331.6 km
Apogee: 555.8 km
Inclination: 73.9 °
Period: 93.3 minutes
Semi major axis: 6814 km
RCS: 5.7394 m2 (large)
Launch date: December 26, 1973
Source: Commonwealth of Independent States (former USSR) (CIS)
Launch site: PLESETSK MISSILE AND SPACE COMPLEX (PKMTR)

Note: This is a ROCKET BODY
aabbcc
Your satellite tracking list
Your tracking list is empty




NASA's NSSDC Master Catalog

Two Line Element Set (TLE):
1 07004U 73107B   17322.80186504  .00012654  00000-0  17191-3 0  9996
2 07004  73.9336  86.3174 0164513 276.6320  81.6188 15.43239827261015
Source of the keplerian elements: AFSPC